Weather History for Sanford, ME

Change the Weather History Date:

Tuesday, April 2, 2013

  Actual Average Record
Temperature  
Mean Temperature 32 °F -  
Max Temperature 39 °F 46 °F 60 °F (2004)
Min Temperature 26 °F 27 °F 23 °F (2014)
Degree Days  
Heating Degree Days 32    
Moisture  
Dew Point 7 °F    
Average Humidity 37    
Maximum Humidity 55    
Minimum Humidity 26    
Precipitation  
Precipitation 0.00 in - - ()
Sea Level Pressure  
Sea Level Pressure 29.78 in    
Wind  
Wind Speed 12 mph (West)    
Max Wind Speed 24 mph    
Max Gust Speed 36 mph    
Visibility 10 miles    
Events      
Averages and records for this station are not official NWS values.
T = Trace of Precipitation, MM = Missing Value Source: NWS Daily Summary

Daily Weather History Graph

Daily Weather History Graph

Search for Another Location

Airport:

Trip Planner

Search our weather history database for the weather conditions in past years. The results will help you decide how hot, cold, wet, or windy it might be!

Date:

Astronomy

Apr. 02, 2013 Rise Set
Actual Time 6:22 AM EDT 7:10 PM EDT
Civil Twilight 5:53 AM EDT 7:39 PM EDT
Nautical Twilight 5:19 AM EDT 8:14 PM EDT
Astronomical Twilight 4:43 AM EDT 8:50 PM EDT
Moon 1:19 AM EDT (4/2) 11:02 AM EDT (4/2)
Length of Visible Light 13h 46m
Length of Day
12h 48m
Waning Gibbous, 56% of the Moon is Illuminated
Apr 2
Waning Gibbous
Apr 3
Last Quarter
Apr 10
New
Apr 18
First Quarter
Apr 25
Full

Hourly Weather History & Observations

Time (EDT) Temp. Windchill Dew Point Humidity Pressure Visibility Wind Dir Wind Speed Gust Speed Precip Events Conditions
12:15 AM 32.0 °F 23.6 °F 10.4 °F 41% 29.73 in 10.0 mi West 10.4 mph 17.3 mph N/A   Clear
12:35 AM 32.0 °F 25.6 °F 8.6 °F 38% 29.73 in 10.0 mi West 6.9 mph 17.3 mph N/A   Clear
12:55 AM 30.2 °F 20.2 °F 8.6 °F 40% 29.74 in 10.0 mi WNW 12.7 mph 16.1 mph N/A   Clear
1:15 AM 30.2 °F 23.4 °F 8.6 °F 40% 29.74 in 10.0 mi West 6.9 mph 16.1 mph N/A   Clear
1:35 AM 28.4 °F 21.2 °F 14.0 °F 55% 29.75 in 10.0 mi West 6.9 mph - N/A   Clear
1:55 AM 30.2 °F 22.6 °F 12.2 °F 47% 29.75 in 10.0 mi West 8.1 mph - N/A   Clear
2:15 AM 30.2 °F 21.3 °F 10.4 °F 44% 29.75 in 10.0 mi West 10.4 mph - N/A   Clear
2:35 AM 30.2 °F 24.3 °F 6.8 °F 37% 29.75 in 10.0 mi West 5.8 mph - N/A   Clear
2:55 AM 28.4 °F 19.7 °F 10.4 °F 47% 29.75 in 10.0 mi West 9.2 mph - N/A   Clear
3:15 AM 30.2 °F 18.9 °F 10.4 °F 44% 29.74 in 10.0 mi West 16.1 mph 24.2 mph N/A   Clear
3:35 AM 30.2 °F 20.8 °F 6.8 °F 37% 29.74 in 10.0 mi West 11.5 mph 21.9 mph N/A   Clear
3:55 AM 28.4 °F 18.5 °F 5.0 °F 37% 29.75 in 10.0 mi West 11.5 mph 18.4 mph N/A   Clear
4:15 AM 28.4 °F 18.0 °F 8.6 °F 43% 29.76 in 10.0 mi West 12.7 mph - N/A   Clear
4:35 AM 28.4 °F 19.1 °F 8.6 °F 43% 29.76 in 10.0 mi WSW 10.4 mph - N/A   Clear
4:55 AM 28.4 °F 18.5 °F 5.0 °F 37% 29.76 in 10.0 mi West 11.5 mph 16.1 mph N/A   Clear
5:15 AM 28.4 °F 19.7 °F 6.8 °F 40% 29.76 in 10.0 mi West 9.2 mph - N/A   Clear
5:35 AM 28.4 °F 19.1 °F 8.6 °F 43% 29.77 in 10.0 mi West 10.4 mph - N/A   Clear
5:55 AM 28.4 °F 20.4 °F 3.2 °F 34% 29.77 in 10.0 mi West 8.1 mph - N/A   Clear
6:15 AM 26.6 °F 18.2 °F 6.8 °F 43% 29.77 in 10.0 mi West 8.1 mph - N/A   Clear
6:35 AM 26.6 °F 17.5 °F 6.8 °F 43% 29.78 in 10.0 mi West 9.2 mph - N/A   Clear
6:55 AM 28.4 °F 20.4 °F 3.2 °F 34% 29.78 in 10.0 mi WSW 8.1 mph - N/A   Clear
7:15 AM 28.4 °F 18.0 °F 6.8 °F 40% 29.79 in 10.0 mi West 12.7 mph 18.4 mph N/A   Clear
7:35 AM 28.4 °F 19.1 °F 6.8 °F 40% 29.79 in 10.0 mi WSW 10.4 mph - N/A   Clear
7:55 AM 30.2 °F 18.1 °F 3.2 °F 32% 29.80 in 10.0 mi West 18.4 mph 27.6 mph N/A   Clear
8:15 AM 30.2 °F 18.1 °F 5.0 °F 34% 29.79 in 10.0 mi West 18.4 mph 24.2 mph N/A   Clear
8:35 AM 30.2 °F 19.8 °F 6.8 °F 37% 29.80 in 10.0 mi West 13.8 mph 27.6 mph N/A   Clear
8:55 AM 30.2 °F 19.3 °F 3.2 °F 32% 29.80 in 10.0 mi West 15.0 mph 24.2 mph N/A   Clear
9:15 AM 32.0 °F 20.8 °F 3.2 °F 30% 29.80 in 10.0 mi West 17.3 mph 29.9 mph N/A   Partly Cloudy
9:35 AM 33.8 °F 22.5 °F 5.0 °F 30% 29.80 in 10.0 mi West 19.6 mph 29.9 mph N/A   Scattered Clouds
9:55 AM 33.8 °F 22.2 °F 5.0 °F 30% 29.80 in 10.0 mi West 20.7 mph 33.4 mph N/A   Mostly Cloudy
10:35 AM 33.8 °F 22.8 °F 3.2 °F 28% 29.80 in 10.0 mi West 18.4 mph 28.8 mph N/A   Scattered Clouds
10:55 AM 32.0 °F 20.1 °F 3.2 °F 30% 29.80 in 10.0 mi West 19.6 mph 29.9 mph N/A   Scattered Clouds
11:15 AM 33.8 °F 22.5 °F 3.2 °F 28% 29.79 in 10.0 mi WNW 19.6 mph 25.3 mph N/A   Mostly Cloudy
11:35 AM 33.8 °F 24.3 °F 3.2 °F 28% 29.79 in 10.0 mi West 13.8 mph 28.8 mph N/A   Overcast
12:15 PM 35.6 °F 25.9 °F 6.8 °F 30% 29.78 in 10.0 mi WNW 16.1 mph 25.3 mph N/A   Overcast
12:35 PM 37.4 °F 27.5 °F 8.6 °F 30% 29.78 in 10.0 mi West 18.4 mph 31.1 mph N/A   Overcast
12:55 PM 35.6 °F 26.2 °F 6.8 °F 30% 29.77 in 10.0 mi WNW 15.0 mph 28.8 mph N/A   Overcast
1:15 PM 35.6 °F 26.2 °F 5.0 °F 28% 29.77 in 10.0 mi West 15.0 mph 26.5 mph N/A   Overcast
1:35 PM 39.2 °F 29.8 °F 10.4 °F 31% 29.76 in 10.0 mi West 18.4 mph 27.6 mph N/A   Overcast
1:55 PM 37.4 °F 26.9 °F 6.8 °F 28% 29.75 in 10.0 mi West 20.7 mph 29.9 mph N/A   Overcast
2:15 PM 37.4 °F 26.6 °F 6.8 °F 28% 29.74 in 10.0 mi West 21.9 mph 34.5 mph N/A   Overcast
2:35 PM 37.4 °F 26.6 °F 5.0 °F 26% 29.74 in 10.0 mi West 21.9 mph 31.1 mph N/A   Overcast
3:35 PM 37.4 °F 29.3 °F 12.2 °F 36% 29.74 in 10.0 mi West 12.7 mph 25.3 mph N/A   Scattered Clouds
3:55 PM 35.6 °F 24.5 °F 15.8 °F 44% 29.74 in 9.0 mi West 20.7 mph 27.6 mph N/A   Mostly Cloudy
4:15 PM 35.6 °F 25.9 °F 10.4 °F 35% 29.74 in 10.0 mi WNW 16.1 mph 31.1 mph N/A   Overcast
4:35 PM 35.6 °F 25.9 °F 6.8 °F 30% 29.74 in 10.0 mi West 16.1 mph 23.0 mph N/A   Mostly Cloudy
4:55 PM 35.6 °F 24.0 °F 10.4 °F 35% 29.74 in 10.0 mi WSW 23.0 mph 35.7 mph N/A   Overcast
5:15 PM 35.6 °F 25.2 °F 10.4 °F 35% 29.75 in 10.0 mi WSW 18.4 mph 25.3 mph N/A   Overcast
6:15 PM 33.8 °F 21.3 °F 10.4 °F 38% 29.77 in 10.0 mi West 24.2 mph 32.2 mph N/A   Mostly Cloudy
6:35 PM 33.8 °F 22.8 °F 10.4 °F 38% 29.78 in 10.0 mi West 18.4 mph 24.2 mph N/A   Mostly Cloudy
6:55 PM 33.8 °F 22.8 °F 6.8 °F 32% 29.79 in 10.0 mi West 18.4 mph 29.9 mph N/A   Mostly Cloudy
7:15 PM 33.8 °F 25.3 °F 5.0 °F 30% 29.80 in 10.0 mi West 11.5 mph 20.7 mph N/A   Mostly Cloudy
7:35 PM 33.8 °F 23.2 °F 3.2 °F 28% 29.81 in 10.0 mi West 17.3 mph 28.8 mph N/A   Partly Cloudy
7:55 PM 32.0 °F 22.5 °F 6.8 °F 35% 29.82 in 10.0 mi West 12.7 mph 25.3 mph N/A   Clear
8:15 PM 32.0 °F 22.1 °F 8.6 °F 38% 29.82 in 10.0 mi West 13.8 mph - N/A   Clear
8:55 PM 30.2 °F 21.3 °F 6.8 °F 37% 29.84 in 10.0 mi WSW 10.4 mph - N/A   Scattered Clouds
9:15 PM 30.2 °F 18.9 °F 6.8 °F 37% 29.84 in 10.0 mi WSW 16.1 mph 26.5 mph N/A   Partly Cloudy
9:35 PM 30.2 °F 21.3 °F 8.6 °F 40% 29.85 in 10.0 mi West 10.4 mph 26.5 mph N/A   Clear
9:55 PM 30.2 °F 19.3 °F 10.4 °F 44% 29.84 in 10.0 mi West 15.0 mph 23.0 mph N/A   Partly Cloudy
10:15 PM 30.2 °F 18.9 °F 6.8 °F 37% 29.84 in 10.0 mi WSW 16.1 mph 20.7 mph N/A   Clear
10:36 PM 30.2 °F 19.8 °F 8.6 °F 40% 29.84 in 10.0 mi West 13.8 mph 24.2 mph N/A   Clear
10:55 PM 30.2 °F 20.2 °F 10.4 °F 44% 29.84 in 10.0 mi West 12.7 mph 20.7 mph N/A   Clear
11:15 PM 28.4 °F 22.2 °F 8.6 °F 43% 29.84 in 10.0 mi SW 5.8 mph - N/A   Clear
11:35 PM 28.4 °F 22.2 °F 6.8 °F 40% 29.85 in 10.0 mi SW 5.8 mph - N/A   Clear
11:55 PM 28.4 °F 19.1 °F 10.4 °F 47% 29.85 in 10.0 mi SW 10.4 mph - N/A   Scattered Clouds